Location: Fayetteville
(35.0530°N, 78.8790°W)
Time: 21:01:34
(UTC-05:00)

X-37B - Visible Passes

Search period start: 05 December 2021 00:00
Search period end: 15 December 2021 00:00
Orbit: 330 x 341 km, 45.0° (Epoch: 20 November)

Date Brightness Start Highest point End Pass type
(mag) Time Alt. Az. Time Alt. Az. Time Alt. Az.
05 Dec 1.7 17:38:56 10° SSW 17:41:24 26° SE 17:43:42 11° E visible
05 Dec 3.5 19:14:15 10° W 19:14:56 15° W 19:14:56 15° W visible
06 Dec 0.2 17:58:53 10° WSW 18:01:45 87° NNW 18:03:24 22° ENE visible
07 Dec 1.6 18:19:39 10° W 18:22:16 31° NNW 18:23:02 26° N visible
08 Dec 2.7 18:40:58 10° WNW 18:42:38 17° NNW 18:42:38 17° NNW visible
10 Dec 2.5 17:46:23 10° WNW 17:48:23 17° NNW 17:50:23 10° NNE visible
11 Dec 2.8 18:07:54 10° NW 18:09:12 12° N 18:10:03 11° N visible
12 Dec 3.0 18:29:01 10° NNW 18:29:35 11° N 18:29:35 11° N visible
14 Dec 2.8 17:34:27 10° NNW 17:35:31 11° N 17:36:35 10° NNE visible
